Home > Weather > Playa del Carmen > Past weeks

Flag for Mexico Weather for the Past 2 Weeks in Playa del Carmen, Quintana Roo, Mexico

Now
66 °F

Scattered clouds.


Feels Like: 66 °F
Forecast: 61 / 74 °F
Wind: 10 mph from Northwest

Location: Cozumel Civ / Mil

Current Time: Feb 10, 2016 at 10:46:43 AM

Latest Report: Feb 10, 2016 at 9:53 AM


Visibility: 8 mi

Pressure: 30.32 "Hg

Humidity: 73%

Dew point: 57 °F

Location of Playa del CarmenLocation

Historic Weather in Playa del Carmen — Graph

°F

Playa del Carmen Temperature Yesterday

Maximum temperature yesterday: 73 °F (at 2:44 PM)
Minimum temperature yesterday: 61 °F (at 6:46 AM)
Average temperature yesterday: 66 °F

High & Low Weather Summary for the Past Weeks

 TemperatureHumidityPressure
High82 °F (Feb 4, 12:47 PM)100% (Jan 26, 10:43 PM)30.32 "Hg (Jan 26, 10:43 PM)
Low61 °F (Feb 9, 6:46 AM)55% (Feb 6, 2:40 PM)29.85 "Hg (Jan 27, 4:50 PM)
Average70 °F86%30.05 "Hg
* Reported Jan 26 9:45 AM — Feb 10 9:53 AM, Playa del Carmen, Weather by CustomWeather, © 2016

Note: Actual official high and low records may vary slightly from our data, if they occured in-between our weather recording intervals... More about our weather records

Advertising

Playa del Carmen Weather History for the Previous 24 Hours

 ConditionsComfort  
Time TempWeatherWind HumidityBarometerVisibility
9:53 AM
Wed, Feb 10
66 °FScattered clouds.10 mph73%30.32 "Hg8 mi
8:45 AM64 °FScattered clouds.12 mph78%30.29 "Hg8 mi
6:43 AM63 °FClear.12 mph77%30.22 "Hg8 mi
5:46 AM63 °FClear.9 mph83%30.24 "Hg7 mi
4:43 AM63 °FClear.14 mph83%30.23 "Hg7 mi
2:49 AM63 °FClear.14 mph77%30.22 "Hg7 mi
1:41 AM63 °FPassing clouds.17 mph83%30.24 "Hg7 mi
12:45 AM64 °FPassing clouds.13 mph78%30.21 "Hg7 mi
11:46 PM
Tue, Feb 9
64 °FPassing clouds.14 mph78%30.25 "Hg7 mi
10:40 PM64 °FPassing clouds.17 mph78%30.25 "Hg7 mi
9:45 PM64 °FPassing clouds.9 mph78%30.25 "Hg7 mi
8:43 PM64 °FPassing clouds.15 mph73%30.22 "Hg7 mi
6:50 PM66 °FPartly cloudy.14 mph73%30.16 "Hg7 mi
5:46 PM70 °FPartly sunny.16 mph69%30.17 "Hg8 mi
3:50 PM73 °FScattered clouds.16 mph57%30.17 "Hg8 mi
2:44 PM73 °FScattered clouds.10 mph57%30.15 "Hg8 mi
12:50 PM72 °FScattered clouds.9 mph61%30.17 "Hg8 mi
11:41 AM68 °FScattered clouds.13 mph73%30.24 "Hg8 mi
10:41 AM66 °FScattered clouds.12 mph83%30.25 "Hg8 mi
Weather by CustomWeather, © 2016

See weather overviewHow to use our weather pages